Vorticity
3 3 3 4 4 4 4 5 6 5 6 -1 3 4 6 10 10 9 8 5 6 3 1 2 2 2 2 8 7 6 6 3 6 1 11 13 36 30 11 10 25 22 18 16 19
3 3 3 4 5 5 5 4 5 5 5 1 3 3 3 10 10 6 8 7 5 3 3 4 3 2 13 7 5 4 2 5 1 7 16 36 28 18 28 11 8 4 20 13 12
3 4 3 4 4 5 6 5 5 7 5 1 6 2 6 13 7 14 7 7 5 5 5 2 1 9 4 4 3 4 6 1 3 10 26 38 15 9 -5 9 4 2 29 8 2
2 3 4 4 4 4 5 6 6 5 7 2 7 3 1 10 13 10 10 8 7 6 2 -1 8 7 5 4 2 5 3 4 7 29 34 13 2 9 16 7 9 6 7 8 13
5 4 3 5 5 5 4 5 6 6 5 6 7 3 2 11 11 8 8 9 6 3 -0 5 6 4 3 2 5 3 2 4 9 27 37 10 14 5 14 15 5 21 5 22 23
6 9 4 5 5 5 6 6 5 6 6 6 4 3 6 10 10 10 10 6 4 0 1 6 6 3 2 2 4 2 3 5 10 40 24 8 5 13 16 7 12 36 31 25 20
-6 -3 9 5 7 6 6 6 6 6 7 6 3 -1 1 7 8 14 11 3 3 -0 4 7 5 3 1 4 3 1 6 3 27 41 15 7 2 6 13 19 11 2 24 22 18
51 -16 -9 6 3 7 7 6 6 6 8 7 -4 9 25 9 11 16 9 5 0 2 8 5 5 3 -1 4 1 2 8 9 25 33 16 3 8 7 3 27 15 20 3 -12 1
17 22 27 -5 9 8 6 7 6 6 4 -23 -6 15 14 11 4 14 7 4 2 6 7 6 3 1 3 4 3 0 6 9 24 36 26 -3 2 2 15 -3 5 8 7 11 13
1 9 26 6 -1 -5 -0 4 6 2 -9 16 19 7 17 6 -2 13 4 2 5 8 6 5 3 0 3 4 2 0 7 12 23 34 16 5 0 3 9 9 29 15 -4 21 11
9 22 13 16 3 9 6 7 -7 -1 1 22 12 7 21 13 7 14 2 6 9 6 6 5 1 4 3 4 0 2 6 11 17 28 17 11 0 -1 12 9 14 17 33 13 -13
35 15 12 17 12 9 15 17 15 13 22 11 13 15 16 2 10 3 11 10 7 5 5 5 2 3 5 3 0 3 5 7 6 30 32 10 5 3 11 -3 -5 24 23 -16 7
2 45 23 22 24 11 8 11 12 10 4 15 7 14 10 8 -1 7 9 8 5 7 4 3 3 2 5 3 1 3 4 7 12 31 27 12 0 4 9 10 4 28 13 35 15
8 27 18 9 9 11 16 10 7 6 13 3 6 20 17 7 -1 5 9 7 4 6 4 4 4 3 4 3 2 3 3 4 10 25 36 24 6 6 6 2 6 27 23 26 6
4 12 30 11 13 21 16 14 6 0 9 -1 14 14 17 2 3 8 8 6 3 7 3 3 3 3 3 4 2 1 2 4 9 19 51 15 3 12 6 6 11 26 17 31 -12
2 10 9 19 23 10 11 6 17 12 23 1 -4 9 17 0 5 6 8 6 6 4 4 4 3 4 2 4 2 1 3 3 6 16 41 38 11 8 10 -3 14 18 6 28 32
15 -2 -2 20 7 12 11 -0 7 12 10 16 5 14 7 8 8 5 8 5 6 4 5 5 4 4 3 3 2 -0 3 3 6 18 24 39 9 3 8 10 14 26 15 6 27
7 15 1 7 10 12 16 12 12 11 9 1 20 -3 18 17 5 4 8 4 6 4 3 4 5 3 4 3 4 1 3 2 6 11 22 43 9 3 4 7 3 12 26 3 14
8 3 2 7 15 7 6 7 6 12 25 19 16 2 4 17 11 7 9 4 5 4 5 5 5 3 5 1 4 0 3 2 6 8 21 37 38 2 3 3 -0 16 48 1 17
-1 1 -1 7 18 4 18 12 19 8 3 19 13 13 8 7 18 8 12 5 4 3 5 5 5 3 6 1 4 1 2 0 2 3 20 33 44 6 -1 4 5 8 55 6 3
4 14 -6 11 18 -0 -1 2 10 13 19 8 9 15 13 5 10 18 12 4 5 2 5 3 7 4 6 2 4 0 2 2 7 6 12 27 26 36 3 -0 8 6 36 9 12
6 10 0 14 -1 2 16 -2 2 12 10 18 12 12 13 6 7 25 9 15 9 2 5 3 6 5 5 3 5 2 0 4 3 3 12 20 24 41 12 1 5 1 25 23 8
-4 19 -2 15 19 13 23 12 2 16 10 8 16 11 12 8 3 4 14 13 7 3 5 5 5 5 4 5 3 5 -0 3 5 6 12 23 16 35 22 3 5 -1 13 44 6
10 2 5 -2 8 0 17 -1 5 11 17 10 15 14 11 7 6 13 15 9 9 4 5 5 5 5 6 6 4 2 0 1 3 7 13 15 34 32 25 8 4 1 5 29 17
-6 8 10 -2 6 4 1 29 12 -1 11 8 16 13 13 18 6 8 14 11 10 5 5 4 5 5 5 6 3 4 1 2 2 7 15 14 21 38 31 11 6 7 3 15 37
5 13 -3 -0 14 -4 19 6 4 3 8 -1 6 14 21 14 8 7 14 10 9 9 7 4 7 6 4 5 3 5 -0 2 4 5 12 16 23 33 37 27 6 7 -0 10 29
0 2 7 10 10 21 -2 17 19 12 3 6 9 8 10 14 5 7 9 10 11 10 8 3 6 5 4 6 3 7 -0 2 3 4 10 17 21 26 35 30 11 7 4 5 6
Height
5819 5818 5816 5814 5812 5809 5807 5805 5803 5802 5800 5798 5796 5793 5788 5785 5782 5780 5778 5776 5773 5771 5769 5766 5763 5760 5755 5750 5743 5734 5726 5716 5707 5695 5679 5656 5637 5616 5606 5596 5590 5582 5573 5567 5569
5813 5812 5810 5809 5807 5805 5803 5801 5799 5798 5796 5794 5792 5789 5785 5781 5779 5776 5774 5772 5770 5767 5765 5762 5758 5754 5749 5742 5735 5729 5720 5707 5696 5677 5655 5635 5621 5611 5605 5595 5587 5579 5569 5560 5558
5807 5806 5804 5803 5802 5800 5798 5796 5795 5793 5792 5790 5788 5785 5781 5778 5775 5773 5770 5768 5766 5763 5761 5758 5754 5750 5745 5738 5729 5720 5711 5699 5683 5662 5642 5626 5615 5605 5597 5589 5580 5574 5568 5560 5553
5800 5799 5798 5797 5796 5795 5794 5791 5789 5788 5786 5786 5784 5780 5777 5774 5773 5769 5766 5764 5762 5760 5757 5753 5749 5744 5738 5731 5724 5715 5704 5689 5670 5650 5631 5620 5613 5603 5592 5581 5571 5564 5558 5553 5548
5792 5792 5791 5790 5790 5789 5788 5786 5784 5782 5781 5780 5778 5776 5774 5771 5768 5764 5762 5761 5759 5756 5753 5749 5744 5738 5732 5726 5718 5708 5695 5679 5661 5642 5624 5616 5607 5599 5588 5577 5567 5558 5551 5545 5539
5783 5783 5784 5784 5783 5782 5782 5781 5779 5777 5776 5774 5773 5771 5769 5767 5763 5760 5757 5756 5754 5751 5749 5745 5739 5734 5728 5720 5712 5701 5687 5670 5651 5631 5619 5612 5602 5594 5585 5575 5565 5554 5546 5540 5535
5773 5773 5775 5775 5776 5776 5776 5774 5773 5772 5770 5769 5767 5765 5764 5762 5758 5755 5753 5752 5750 5747 5744 5740 5734 5728 5722 5714 5706 5695 5680 5661 5644 5625 5615 5605 5597 5590 5582 5573 5563 5554 5546 5540 5535
5763 5765 5765 5766 5768 5768 5769 5768 5766 5765 5764 5762 5761 5760 5757 5756 5754 5750 5749 5748 5746 5743 5739 5735 5730 5724 5717 5710 5700 5688 5670 5653 5636 5620 5613 5605 5596 5590 5581 5571 5563 5554 5548 5542 5537
5758 5755 5754 5756 5759 5760 5760 5761 5759 5758 5757 5757 5756 5753 5752 5750 5749 5746 5745 5744 5742 5738 5735 5731 5725 5720 5713 5703 5693 5679 5664 5648 5631 5620 5610 5605 5596 5588 5580 5572 5563 5554 5549 5544 5538
5749 5746 5745 5746 5747 5750 5752 5753 5751 5750 5751 5752 5750 5749 5746 5745 5743 5741 5740 5739 5736 5734 5731 5727 5721 5715 5708 5701 5690 5677 5663 5645 5628 5613 5604 5599 5594 5586 5579 5572 5562 5556 5549 5545 5539
5740 5738 5737 5738 5739 5742 5743 5745 5746 5746 5746 5746 5744 5743 5740 5740 5739 5737 5735 5735 5732 5730 5727 5722 5717 5711 5705 5696 5685 5673 5660 5643 5626 5611 5605 5599 5594 5586 5579 5572 5565 5558 5551 5547 5542
5732 5729 5729 5731 5734 5735 5736 5738 5739 5740 5740 5738 5736 5735 5735 5734 5734 5732 5731 5730 5727 5724 5720 5718 5713 5707 5700 5692 5683 5671 5657 5642 5625 5614 5605 5599 5592 5586 5579 5571 5565 5559 5555 5550 5546
5728 5722 5722 5725 5726 5728 5729 5732 5732 5731 5732 5732 5730 5729 5729 5730 5729 5728 5726 5724 5722 5719 5716 5713 5709 5704 5697 5689 5679 5668 5655 5639 5627 5612 5602 5598 5593 5586 5580 5572 5567 5561 5556 5553 5551
5724 5720 5717 5718 5720 5720 5722 5725 5725 5724 5724 5727 5725 5724 5723 5724 5724 5723 5721 5721 5718 5715 5713 5710 5705 5700 5693 5685 5677 5665 5650 5637 5624 5610 5601 5595 5591 5587 5582 5576 5570 5564 5560 5557 5554
5718 5717 5714 5712 5712 5714 5716 5716 5717 5719 5719 5721 5719 5718 5718 5720 5719 5718 5717 5716 5714 5711 5709 5706 5701 5697 5691 5684 5674 5664 5650 5637 5622 5608 5599 5593 5589 5585 5582 5581 5572 5567 5563 5560 5559
5713 5712 5711 5708 5707 5708 5708 5709 5711 5713 5710 5714 5714 5712 5712 5712 5712 5712 5712 5712 5710 5707 5704 5701 5698 5694 5688 5681 5671 5662 5649 5638 5622 5609 5600 5592 5590 5587 5582 5578 5574 5569 5566 5564 5563
5707 5707 5706 5704 5703 5702 5702 5703 5705 5703 5706 5708 5708 5707 5706 5706 5706 5706 5706 5707 5706 5703 5700 5698 5695 5691 5685 5678 5669 5660 5650 5636 5624 5608 5602 5592 5590 5586 5582 5578 5574 5571 5568 5568 5568
5700 5700 5700 5700 5698 5697 5696 5697 5697 5698 5698 5700 5701 5701 5701 5700 5701 5700 5700 5701 5700 5699 5696 5692 5691 5686 5680 5674 5666 5656 5644 5633 5620 5611 5603 5595 5590 5586 5583 5578 5574 5573 5571 5571 5572
5694 5694 5694 5694 5693 5692 5692 5690 5691 5693 5693 5693 5693 5694 5694 5695 5695 5695 5694 5695 5695 5695 5693 5688 5686 5683 5678 5670 5664 5655 5645 5634 5624 5612 5603 5593 5589 5587 5585 5581 5579 5578 5574 5572 5574
5686 5688 5689 5688 5687 5687 5687 5686 5686 5687 5686 5686 5686 5687 5688 5688 5690 5689 5689 5689 5689 5690 5688 5686 5682 5679 5675 5668 5662 5652 5643 5633 5623 5613 5603 5596 5588 5585 5585 5584 5582 5581 5578 5574 5577
5679 5680 5683 5683 5682 5682 5682 5682 5681 5680 5680 5680 5680 5681 5682 5683 5684 5684 5685 5685 5684 5685 5683 5681 5680 5677 5671 5666 5659 5651 5642 5632 5622 5612 5602 5595 5589 5585 5583 5584 5583 5581 5578 5578 5579
5672 5674 5677 5677 5677 5677 5677 5678 5678 5676 5675 5674 5674 5675 5676 5677 5678 5678 5679 5679 5679 5679 5679 5677 5675 5672 5668 5663 5656 5648 5641 5632 5621 5612 5601 5595 5589 5583 5581 5584 5583 5581 5579 5579 5581
5664 5667 5669 5670 5670 5671 5671 5672 5672 5672 5670 5669 5669 5670 5669 5670 5672 5673 5674 5674 5674 5675 5674 5674 5671 5668 5663 5661 5654 5647 5639 5631 5621 5610 5602 5594 5586 5579 5579 5581 5582 5582 5580 5580 5582
5657 5660 5664 5664 5665 5665 5665 5666 5667 5667 5665 5665 5664 5664 5664 5665 5666 5667 5668 5669 5669 5670 5670 5669 5667 5664 5661 5656 5650 5644 5637 5630 5619 5609 5600 5592 5587 5579 5576 5577 5581 5581 5581 5579 5580
5651 5652 5657 5658 5659 5659 5660 5660 5661 5662 5661 5661 5660 5659 5659 5660 5660 5661 5663 5664 5665 5665 5666 5665 5663 5660 5656 5652 5647 5641 5635 5627 5616 5607 5598 5590 5583 5577 5574 5573 5577 5579 5580 5578 5580
5642 5645 5649 5652 5652 5654 5653 5655 5656 5656 5657 5656 5656 5655 5655 5655 5656 5655 5657 5659 5660 5660 5661 5660 5659 5656 5653 5649 5644 5638 5632 5624 5614 5605 5596 5586 5579 5574 5568 5569 5572 5575 5578 5578 5577
5633 5638 5641 5645 5646 5647 5648 5649 5649 5650 5652 5652 5652 5651 5651 5651 5651 5652 5652 5653 5655 5656 5656 5656 5654 5653 5650 5646 5641 5636 5628 5620 5611 5602 5593 5583 5574 5571 5565 5563 5567 5571 5574 5576 5576